Dewpoint
11 10 10 10 10 10 10 10 10 9 9 9 9 9 10 10 10 10 9 9 9 8 8 7 7 7 7 6 6 5 5 3 -2 -6 -6 -7 -8 -13 -18 -22 -24 -19 -16 -12 -9 -8 -6 -5 -3 -3 -3 -3
11 10 10 10 10 10 10 9 9 9 9 9 9 9 10 10 10 9 9 9 9 8 8 7 7 7 6 6 6 5 4 3 -1 -7 -8 -8 -11 -17 -25 -27 -27 -21 -17 -14 -11 -9 -8 -6 -5 -5 -5 -7
11 10 10 10 10 10 10 9 9 9 9 9 10 9 9 10 9 9 9 9 8 8 7 7 7 7 6 6 5 5 3 3 0 -7 -9 -11 -16 -23 -30 -29 -29 -24 -20 -17 -14 -11 -9 -7 -6 -7 -8 -8
11 11 10 10 10 10 10 9 9 9 8 9 10 10 10 9 9 9 9 8 8 7 7 7 7 7 6 6 5 5 2 1 -1 -8 -12 -14 -23 -29 -33 -33 -32 -29 -25 -21 -19 -15 -12 -10 -8 -8 -8 -7
11 11 10 10 10 10 10 9 9 9 9 9 9 10 9 9 9 8 8 8 8 7 7 7 7 6 6 6 6 5 3 -0 -4 -10 -15 -18 -29 -33 -33 -35 -35 -33 -32 -28 -26 -21 -18 -14 -11 -10 -9 -9
11 10 10 10 10 10 10 9 9 9 9 9 9 9 9 9 9 8 8 8 7 7 7 7 6 6 6 6 6 6 5 0 -8 -13 -16 -24 -32 -35 -35 -35 -36 -35 -35 -33 -31 -28 -24 -20 -17 -15 -14 -15
11 10 10 10 10 10 9 9 9 9 9 9 9 9 9 9 8 8 8 7 7 7 7 6 6 6 6 5 6 5 6 3 -8 -20 -19 -30 -35 -34 -36 -34 -36 -36 -35 -36 -34 -34 -31 -28 -28 -26 -27 -29
11 10 10 10 9 9 8 8 9 8 8 8 8 9 9 8 8 8 8 7 7 7 6 6 6 6 5 5 5 5 6 5 -4 -23 -28 -33 -36 -34 -37 -35 -37 -36 -35 -36 -36 -36 -35 -35 -36 -34 -35 -37
11 10 10 9 9 8 8 8 8 7 8 8 8 8 8 8 8 8 7 7 7 6 6 6 6 5 5 5 5 5 5 5 1 -15 -35 -33 -35 -35 -35 -37 -35 -37 -37 -35 -36 -35 -36 -35 -35 -37 -34 -35
10 10 9 9 8 8 8 8 7 7 7 7 8 8 8 8 7 7 7 7 6 6 5 5 5 4 4 4 5 5 5 4 1 -10 -31 -34 -36 -36 -34 -37 -34 -35 -35 -35 -37 -34 -35 -35 -33 -33 -31 -33
10 9 9 9 8 8 8 7 7 7 7 7 7 7 7 7 6 6 6 6 5 5 5 4 4 4 2 2 3 4 4 1 -2 -11 -28 -31 -33 -36 -33 -36 -34 -34 -35 -34 -35 -32 -28 -24 -21 -21 -22 -27
10 9 10 9 8 8 8 7 7 7 7 6 6 6 7 6 5 6 5 5 5 4 4 4 4 4 1 -1 1 3 0 -4 -6 -12 -26 -33 -34 -35 -34 -35 -35 -34 -34 -31 -26 -23 -19 -16 -16 -17 -20 -24
10 9 10 9 8 8 8 8 7 7 7 6 6 6 6 6 5 5 5 5 4 4 4 3 3 4 2 -3 -4 -2 -5 -10 -11 -14 -21 -28 -32 -33 -34 -33 -34 -34 -31 -27 -21 -19 -18 -18 -19 -21 -23 -25
10 9 10 9 9 8 8 8 7 7 7 6 6 6 6 6 5 5 5 5 4 4 4 4 3 3 3 -1 -5 -8 -11 -15 -16 -18 -19 -24 -28 -30 -32 -32 -33 -33 -30 -27 -23 -23 -25 -26 -26 -27 -28 -27
10 10 10 9 9 8 8 8 7 7 7 7 6 6 6 6 6 5 5 5 4 4 4 4 3 3 3 2 0 -3 -8 -13 -16 -18 -19 -20 -22 -23 -24 -25 -24 -24 -23 -23 -22 -23 -25 -27 -28 -28 -30 -29
10 10 10 9 9 8 8 8 7 7 7 7 7 6 6 6 6 6 5 5 4 4 4 3 3 3 3 3 3 2 -1 -5 -9 -12 -14 -15 -16 -16 -16 -16 -16 -17 -17 -18 -19 -20 -21 -22 -24 -25 -26 -27
10 10 9 9 9 8 8 8 8 7 7 7 7 6 6 6 6 6 5 5 5 4 4 3 3 3 2 2 2 2 2 -0 -2 -4 -5 -7 -8 -9 -10 -10 -10 -11 -12 -12 -13 -13 -14 -14 -15 -16 -16 -16
10 10 9 9 9 8 8 8 8 7 7 7 7 6 6 6 6 6 5 5 5 4 4 3 3 3 3 2 1 1 1 1 1 1 1 -0 -1 -1 -2 -2 -3 -4 -5 -5 -6 -5 -5 -6 -6 -6 -7 -7
9 9 9 9 8 8 8 8 8 7 7 7 7 6 6 6 6 6 5 5 5 4 4 4 4 3 3 2 2 1 1 1 1 1 1 2 1 1 1 0 -0 -1 -2 -2 -3 -3 -3 -3 -4 -4 -4 -5
9 8 8 9 8 8 8 8 7 7 7 7 7 6 6 6 6 5 5 5 5 5 4 4 4 3 3 3 2 2 1 1 1 -1 -1 -0 0 0 0 -0 -0 -1 -2 -2 -3 -4 -4 -5 -5 -6 -6 -7
8 8 8 8 8 8 8 7 7 7 7 7 7 6 6 6 6 5 5 5 5 5 4 4 4 3 3 3 2 3 2 2 1 -1 -2 -2 -2 -1 -1 -1 -1 -1 -2 -3 -5 -6 -7 -8 -9 -10 -11 -12
8 8 8 8 8 8 8 7 7 7 7 6 7 6 6 6 6 5 5 5 5 5 5 4 4 3 3 3 3 3 2 2 1 0 -1 -1 -2 -2 -2 -2 -2 -2 -3 -6 -9 -10 -12 -13 -14 -14 -16 -16
8 7 8 7 7 7 7 7 6 6 6 6 6 6 6 6 5 5 5 5 5 5 5 4 4 3 3 3 3 2 2 2 1 1 0 -1 -1 -2 -2 -3 -4 -5 -8 -11 -13 -14 -15 -15 -15 -15 -15 -15
8 7 8 7 7 6 6 6 6 6 6 6 6 6 5 5 5 5 5 5 5 5 5 4 4 3 3 3 3 2 2 2 1 1 0 -1 -2 -4 -5 -7 -8 -10 -11 -13 -14 -14 -14 -14 -14 -14 -13 -14
7 7 7 7 7 6 6 6 6 6 6 5 5 5 4 4 5 5 4 4 5 5 4 4 4 3 3 3 3 2 2 2 1 1 0 -1 -4 -6 -9 -10 -11 -12 -12 -13 -13 -13 -13 -13 -13 -13 -13 -13
7 6 7 7 7 6 6 5 5 5 5 4 4 4 4 4 4 4 4 4 4 4 4 4 3 3 3 3 2 2 2 2 1 1 -0 -3 -6 -10 -11 -11 -12 -12 -13 -13 -13 -13 -13 -13 -12 -12 -12 -12
7 6 6 6 6 6 6 5 5 5 5 4 4 4 4 3 3 3 3 3 2 2 3 3 3 3 2 2 2 2 2 2 1 0 -2 -5 -9 -11 -12 -12 -12 -13 -13 -13 -13 -13 -13 -12 -12 -12 -12 -12
6 6 6 5 5 5 5 4 4 3 3 3 3 3 3 3 3 3 2 2 1 0 1 2 2 2 2 1 1 1 1 1 -0 -1 -4 -8 -11 -12 -12 -12 -13 -13 -13 -13 -13 -13 -13 -12 -12 -12 -12 -11
5 5 5 5 4 4 4 4 3 2 2 2 2 3 3 3 2 2 2 1 0 -1 -1 0 0 1 1 0 -0 -1 -1 -3 -4 -5 -7 -10 -11 -12 -12 -12 -13 -13 -13 -13 -13 -13 -13 -13 -12 -13 -12 -13
4 4 5 5 4 4 4 3 3 2 2 1 1 1 1 1 1 1 0 0 -1 -2 -2 -1 -1 -1 -1 -2 -3 -4 -5 -7 -8 -10 -11 -12 -12 -12 -13 -13 -13 -13 -13 -13 -13 -14 -15 -15 -15 -15 -15 -15
3 3 3 4 4 4 4 3 3 2 2 1 1 1 0 0 0 0 -0 -0 -1 -2 -3 -3 -2 -2 -3 -4 -5 -6 -8 -9 -10 -11 -11 -11 -11 -11 -11 -11 -12 -12 -13 -14 -15 -16 -17 -17 -17 -17 -17 -17
Wind_Speed
18 17 16 17 18 17 16 16 15 15 17 18 19 19 18 17 15 13 12 10 8 6 4 2 1 0 1 2 3 2 1 1 1 2 2 2 2 3 4 4 3 4 3 3 2 2 3 3 4 4 5 5
18 18 18 19 19 17 16 14 14 14 16 17 18 19 18 17 15 14 12 10 8 5 4 2 1 1 1 2 3 2 1 2 2 2 3 3 3 5 5 5 5 5 4 3 2 3 4 4 5 5 5 6
20 20 19 20 19 17 17 15 13 14 16 16 17 17 18 16 15 13 11 9 7 5 4 3 2 2 2 2 2 2 1 2 3 2 3 4 5 6 6 6 6 5 4 3 3 3 4 4 5 6 6 7
22 21 20 19 18 17 17 15 14 14 15 15 16 17 16 15 14 12 11 9 7 5 4 3 3 3 3 3 2 2 1 2 3 3 5 6 7 7 7 7 6 5 4 4 3 3 3 4 4 5 7 8
24 22 20 19 17 17 16 15 15 15 14 14 15 15 14 13 12 11 10 8 6 5 3 3 3 3 4 3 2 1 1 1 3 4 6 8 8 8 7 7 6 5 4 3 3 2 3 3 4 5 6 7
26 23 21 20 18 17 16 16 16 15 13 14 14 14 13 13 12 10 9 7 6 5 3 3 3 3 4 4 3 1 1 1 3 5 8 9 8 8 7 7 6 5 4 4 3 2 2 2 3 4 5 6
26 24 22 20 19 18 16 16 15 14 15 15 14 14 14 12 11 9 9 8 6 5 4 3 4 4 5 5 3 1 0 1 3 6 8 9 8 8 7 7 6 6 5 4 3 2 1 1 2 3 4 4
27 24 22 20 19 18 17 17 15 15 16 16 15 14 14 12 11 11 10 8 6 4 4 4 4 5 5 5 4 2 1 3 4 6 8 9 8 8 7 7 6 6 5 4 4 3 2 0 1 2 3 3
27 25 22 21 20 18 18 17 15 14 15 16 16 15 14 13 12 11 9 7 5 4 4 4 4 4 4 4 3 1 1 4 6 7 9 9 8 8 8 7 7 6 5 4 4 3 2 1 0 1 2 3
28 25 24 22 21 20 18 16 15 14 14 14 15 15 14 13 11 9 8 6 4 4 3 3 3 3 2 2 2 1 1 4 6 8 9 9 9 8 8 7 7 6 5 4 4 3 2 1 0 1 2 3
27 26 25 23 20 21 19 18 18 15 13 13 14 14 14 11 7 7 7 5 4 3 1 1 1 1 1 0 1 2 2 3 6 8 9 9 9 8 8 7 6 6 5 4 3 2 1 1 1 2 3 3
26 26 27 25 22 23 21 21 20 17 15 14 14 14 14 11 6 6 6 5 4 3 1 1 2 3 3 3 3 4 3 3 5 7 9 9 9 9 8 7 6 6 5 4 3 2 2 1 2 2 3 3
28 27 28 28 26 27 26 24 22 20 19 17 16 16 15 12 8 8 7 4 4 3 2 1 3 4 4 4 5 5 5 4 5 6 8 8 9 9 8 8 7 6 5 4 4 3 3 2 2 2 3 3
32 30 31 31 29 29 28 26 25 24 22 19 19 18 17 14 11 10 7 5 5 3 2 1 2 4 4 5 5 5 5 5 5 5 6 7 7 7 7 7 6 5 4 4 3 3 3 3 3 3 3 4
34 33 33 33 32 30 29 29 27 26 25 23 22 20 19 17 14 12 7 7 7 3 3 2 2 2 4 4 5 5 4 4 5 5 5 5 6 6 5 5 4 4 3 3 3 3 3 3 3 4 4 5
36 35 34 34 33 32 32 31 30 28 27 26 25 23 22 19 17 14 11 10 8 4 4 3 2 1 2 3 4 4 4 3 3 3 4 4 4 4 4 4 3 2 2 2 3 3 3 4 4 4 5 6
38 36 36 36 35 35 34 33 31 31 30 28 27 25 24 22 19 17 14 13 10 8 7 5 3 2 1 1 2 2 2 2 2 1 1 1 2 3 2 2 2 2 2 3 3 3 4 4 4 5 5 6
39 38 38 38 38 36 35 34 33 32 31 30 28 27 26 24 21 18 16 14 12 10 8 6 5 4 3 3 3 2 1 1 2 2 2 2 2 2 2 2 2 3 3 4 4 5 5 6 7 7 8 9
41 42 42 41 40 38 37 36 35 33 32 30 29 29 28 26 23 20 18 17 15 12 9 8 7 6 4 3 4 3 3 3 5 6 6 6 6 5 4 4 4 5 6 7 7 7 8 9 9 10 11 11
42 44 44 43 41 39 39 37 36 35 34 32 31 31 29 27 25 21 19 18 16 13 12 11 9 7 4 3 3 3 4 6 7 7 8 9 9 10 9 8 7 7 9 9 9 10 10 10 11 12 12 13
40 41 42 43 41 41 40 39 38 37 36 34 33 32 31 29 26 23 22 21 19 16 15 14 11 9 6 5 5 5 7 9 9 8 8 8 10 11 12 11 10 10 10 11 11 11 11 11 11 11 11 12
41 42 42 42 42 42 42 41 40 39 37 35 34 34 32 31 28 27 26 24 22 19 18 16 14 11 9 8 7 7 9 10 10 9 10 10 11 10 10 10 9 8 10 10 10 10 10 10 10 10 10 10
38 39 39 40 41 42 42 41 40 38 38 37 37 36 35 33 32 30 29 27 24 22 20 19 17 14 12 10 9 9 9 9 9 10 11 12 11 8 6 5 5 5 7 8 8 8 8 8 8 8 8 8
38 38 39 39 39 39 40 39 39 38 39 39 39 39 38 36 34 32 31 29 27 25 23 21 19 17 15 13 10 9 9 9 9 11 13 13 10 7 4 3 3 3 5 5 6 6 6 5 5 5 6 7
39 41 40 40 39 39 39 39 40 40 40 40 40 40 38 37 35 33 31 30 28 26 24 22 20 19 17 14 12 11 10 10 10 11 13 13 9 7 5 3 1 2 3 4 4 4 4 4 4 4 5 5
39 40 40 40 40 40 39 38 39 39 38 37 36 35 35 34 33 33 32 30 29 27 25 23 21 20 18 16 14 12 10 10 10 11 12 10 8 6 5 3 1 1 2 2 3 4 4 4 4 4 5 6
38 38 39 40 41 42 42 40 38 38 38 37 36 35 34 33 31 30 29 28 27 26 25 24 22 21 19 17 15 13 12 10 10 10 10 8 6 6 5 3 2 2 2 2 3 3 4 5 5 5 7 8
36 38 38 38 38 39 40 39 37 37 36 36 35 34 32 31 30 28 27 26 24 23 24 23 22 21 19 17 15 14 12 10 9 8 8 7 6 5 5 4 3 3 3 3 3 3 4 5 5 5 7 7
35 36 37 36 35 34 33 33 32 32 31 32 32 31 31 30 29 28 27 26 24 22 22 22 21 19 17 15 13 11 9 7 6 6 6 5 5 5 4 4 4 4 4 4 4 4 5 6 5 5 5 5
35 35 36 37 36 35 34 33 32 31 30 29 29 28 28 28 27 26 24 23 21 18 17 17 17 16 14 11 9 7 5 4 4 4 4 4 4 4 4 4 5 5 6 5 5 5 5 5 5 5 6 6
32 33 34 35 36 36 35 35 33 31 30 28 26 25 24 24 24 23 22 20 19 17 14 14 14 13 11 8 6 5 4 3 3 3 3 3 3 4 4 5 5 6 6 6 6 6 5 5 6 7 9 8
Wind_Direction
190 190 192 193 192 188 186 187 188 183 176 179 187 187 187 192 194 198 206 214 225 228 206 202 207 253 325 331 342 348 348 304 290 268 228 198 175 157 152 165 183 199 210 223 251 288 305 318 331 345 356 1
190 190 190 191 188 185 185 189 192 184 177 181 187 190 191 193 196 203 210 219 226 215 204 211 227 310 346 343 348 346 312 242 247 248 218 187 160 150 151 165 179 194 206 219 249 283 300 315 326 339 351 357
191 189 187 187 187 185 186 191 198 192 183 184 186 190 192 195 200 206 212 222 226 214 217 237 261 291 330 331 337 335 302 227 223 220 200 175 159 155 156 167 175 187 198 210 238 270 294 310 322 337 349 358
189 186 185 186 188 189 189 192 197 194 190 190 189 191 193 199 208 211 216 220 219 216 227 250 276 300 317 323 328 313 284 217 207 199 187 172 160 159 161 167 174 184 192 204 226 257 282 301 319 339 350 357
187 184 182 185 188 189 193 197 195 190 193 198 194 195 196 201 208 210 215 217 218 225 240 265 288 305 314 317 319 308 291 200 187 185 180 171 164 163 166 169 175 182 187 198 213 246 276 303 325 341 347 351
187 185 182 184 188 189 194 197 193 189 198 208 202 200 200 199 203 208 216 224 232 241 251 273 293 301 305 303 300 303 299 165 165 175 176 172 169 168 170 171 174 179 180 186 191 216 271 313 328 336 339 345
188 185 182 184 187 188 196 198 194 196 206 212 207 204 202 201 208 217 226 232 234 239 259 277 286 288 292 295 299 313 229 173 161 169 174 174 173 173 173 171 173 176 176 175 173 174 191 297 321 331 336 344
188 185 182 186 188 190 200 203 201 204 208 208 206 206 206 209 217 223 226 227 224 233 261 271 276 278 283 288 293 308 199 178 169 169 175 177 178 179 176 173 173 175 175 171 163 160 160 169 323 338 339 343
189 187 185 188 192 194 198 199 202 206 204 200 200 205 209 213 216 219 220 218 224 247 258 264 277 283 284 284 282 289 189 179 176 173 178 180 181 182 179 177 174 173 173 168 159 155 154 155 352 336 329 329
191 189 188 191 194 194 194 196 200 201 196 194 197 204 207 208 212 217 218 216 227 249 260 274 289 298 292 279 270 239 172 181 180 178 180 182 183 183 183 181 178 175 170 169 164 160 159 167 255 307 313 319
190 190 188 191 198 196 198 201 195 194 197 198 202 204 203 202 214 220 209 206 213 223 247 334 326 359 35 120 169 161 151 175 182 182 182 182 184 185 187 186 183 180 175 174 171 167 174 215 280 300 307 316
193 193 190 191 199 200 202 199 193 197 201 203 205 204 203 201 207 202 194 205 210 206 193 77 60 56 69 94 114 134 142 160 177 183 184 184 185 186 188 188 187 185 181 180 179 191 211 239 270 291 301 309
202 199 196 196 201 202 200 196 197 203 199 199 203 203 204 202 199 196 202 218 200 193 192 78 58 66 73 84 99 121 135 152 169 179 185 186 188 189 189 190 191 191 190 192 196 209 224 236 250 270 285 296
205 205 201 200 201 201 198 197 199 200 197 198 202 204 202 199 200 200 209 209 188 201 227 4 35 59 68 78 88 103 120 138 156 167 177 182 187 190 193 195 195 196 202 214 226 232 243 255 260 271 276 281
203 206 203 201 200 199 199 199 198 196 196 198 201 202 199 196 195 193 197 192 186 203 232 266 344 36 52 67 76 82 94 117 139 150 163 173 183 190 195 199 203 212 228 245 259 265 271 279 277 279 279 278
203 203 203 201 199 199 201 200 198 197 197 198 200 199 196 194 191 190 193 191 192 206 221 240 264 343 40 59 59 59 63 86 121 141 159 170 183 196 204 212 221 228 243 254 268 275 277 281 281 282 283 283
202 203 203 202 201 200 200 200 200 199 199 199 200 198 195 194 193 193 194 196 204 212 218 223 210 213 210 34 15 27 42 57 79 99 149 186 200 215 228 239 259 268 270 272 276 283 285 287 286 286 286 285
201 204 204 201 201 200 200 201 202 202 201 201 201 199 196 195 196 196 196 201 208 209 212 210 197 204 232 292 310 287 285 343 346 342 337 326 305 287 287 288 298 301 293 288 288 292 294 294 292 291 291 288
203 203 203 201 199 201 203 202 201 202 202 202 203 201 198 197 198 198 199 202 204 204 206 203 203 214 239 280 294 281 269 300 308 298 294 300 304 304 302 299 298 297 291 287 288 290 291 292 292 292 291 290
205 199 198 199 199 201 203 202 202 201 201 203 204 203 201 199 199 199 202 203 202 203 203 200 206 217 230 244 257 268 282 310 312 292 280 280 283 285 287 289 291 292 288 287 287 288 288 288 288 288 288 288
211 202 197 197 200 202 202 202 202 201 201 203 203 203 202 200 199 200 204 205 203 203 201 201 204 213 226 227 226 249 283 305 312 308 302 291 282 278 276 278 283 287 286 285 286 287 286 285 284 284 284 284
211 206 201 198 199 202 202 201 200 199 200 201 203 204 203 202 200 201 204 205 204 204 202 202 204 211 224 229 233 255 280 296 303 310 315 312 303 291 277 271 272 277 279 281 282 281 282 283 283 284 285 286
212 209 206 203 200 199 200 200 200 200 199 200 202 203 203 203 202 201 203 204 205 204 202 203 206 209 215 222 236 256 271 286 300 308 312 315 310 298 282 268 260 263 269 273 274 275 277 278 283 287 289 291
214 214 213 209 205 200 199 200 202 202 202 201 201 201 201 202 202 202 203 204 204 204 203 205 208 207 207 215 229 244 260 278 297 306 311 314 308 295 281 263 247 252 257 262 264 268 271 273 279 285 286 288
211 210 212 211 208 205 201 200 202 203 202 201 199 198 198 198 200 202 203 203 204 203 203 206 208 205 204 212 221 229 247 270 287 298 308 311 302 291 286 275 263 248 254 261 261 262 267 271 269 269 276 279
213 209 209 210 209 208 206 203 202 203 202 200 200 200 200 199 199 201 202 201 201 203 205 205 204 203 206 213 216 220 235 257 275 291 303 303 291 284 286 287 274 220 234 244 262 267 261 260 257 258 263 262
216 214 211 210 208 207 206 204 202 204 204 204 204 204 203 202 201 201 201 200 199 201 203 202 201 204 208 210 212 217 226 243 265 286 295 288 274 273 278 278 265 239 229 227 253 265 255 250 244 251 256 250
216 216 211 208 206 203 202 200 197 198 199 200 202 202 202 204 205 205 205 205 204 202 201 200 200 203 205 206 208 213 220 234 254 270 274 267 261 265 267 268 273 276 272 267 265 257 256 261 247 233 234 238
216 216 213 210 207 204 204 202 199 198 196 196 198 202 203 205 207 207 207 206 206 203 201 199 198 200 202 203 206 209 217 226 236 245 248 247 249 257 264 271 281 293 299 298 291 279 271 264 242 217 227 257
212 213 214 214 212 209 208 205 203 202 201 198 198 200 201 202 204 206 206 205 205 205 201 198 196 197 197 199 202 203 208 211 212 216 220 228 241 257 275 285 292 301 304 303 298 296 289 269 251 255 275 288
208 209 210 212 212 210 210 208 203 201 202 203 202 202 202 204 205 207 208 209 211 210 205 199 194 194 194 194 196 192 186 191 199 207 218 239 260 272 284 293 295 297 297 296 294 294 295 287 281 285 288 290
Height
1545 1546 1548 1549 1550 1552 1553 1555 1556 1557 1558 1559 1561 1562 1563 1564 1565 1565 1565 1566 1567 1567 1568 1568 1568 1568 1568 1568 1568 1569 1569 1569 1570 1570 1570 1571 1571 1572 1573 1574 1574 1575 1575 1575 1576 1576 1577 1577 1578 1578 1578 1578
1544 1546 1547 1548 1550 1551 1553 1554 1555 1556 1557 1558 1559 1561 1562 1563 1563 1564 1565 1565 1566 1566 1567 1567 1568 1568 1568 1568 1568 1568 1569 1569 1569 1569 1570 1570 1571 1572 1573 1574 1574 1575 1575 1575 1576 1576 1577 1577 1578 1578 1578 1578
1544 1545 1546 1548 1550 1551 1552 1553 1555 1556 1557 1557 1558 1559 1561 1561 1562 1563 1564 1565 1565 1566 1567 1567 1568 1568 1568 1568 1568 1568 1568 1569 1569 1569 1569 1570 1571 1572 1573 1574 1574 1575 1575 1575 1576 1576 1577 1577 1578 1578 1578 1578
1543 1544 1545 1548 1549 1550 1551 1552 1554 1555 1556 1557 1558 1559 1560 1561 1562 1563 1564 1564 1565 1565 1566 1567 1567 1568 1568 1568 1568 1568 1568 1568 1568 1569 1569 1570 1570 1571 1573 1574 1574 1574 1575 1575 1576 1576 1577 1577 1577 1578 1578 1578
1542 1543 1545 1547 1548 1549 1551 1552 1553 1554 1555 1556 1558 1559 1559 1560 1561 1562 1563 1564 1564 1565 1566 1567 1567 1567 1567 1568 1568 1568 1568 1568 1568 1568 1569 1569 1570 1571 1572 1573 1574 1574 1575 1576 1576 1577 1577 1577 1577 1577 1578 1578
1541 1543 1544 1546 1547 1548 1550 1551 1553 1554 1555 1556 1557 1558 1559 1560 1560 1561 1562 1563 1564 1565 1566 1566 1567 1567 1567 1567 1567 1568 1568 1568 1568 1568 1568 1569 1570 1571 1572 1573 1574 1574 1575 1576 1576 1576 1576 1577 1577 1577 1578 1578
1540 1541 1543 1545 1546 1548 1549 1551 1552 1554 1555 1556 1557 1558 1558 1559 1560 1561 1562 1563 1564 1565 1566 1566 1566 1566 1566 1566 1567 1567 1567 1568 1567 1567 1568 1569 1570 1571 1572 1573 1574 1574 1575 1575 1576 1576 1576 1576 1577 1577 1578 1578
1538 1540 1542 1544 1546 1547 1549 1550 1552 1553 1554 1555 1556 1557 1558 1558 1559 1561 1562 1563 1564 1565 1565 1566 1566 1565 1565 1566 1566 1566 1567 1567 1567 1567 1567 1568 1569 1570 1572 1573 1573 1574 1574 1575 1575 1575 1576 1576 1577 1577 1577 1577
1537 1539 1541 1542 1545 1546 1548 1550 1551 1552 1553 1555 1556 1556 1557 1558 1559 1561 1562 1563 1564 1565 1565 1565 1565 1565 1564 1565 1565 1565 1566 1566 1566 1566 1567 1568 1569 1570 1571 1572 1573 1574 1574 1574 1575 1575 1575 1576 1576 1576 1577 1577
1536 1537 1539 1541 1543 1545 1547 1549 1550 1551 1553 1554 1555 1556 1557 1558 1560 1561 1562 1562 1563 1564 1564 1564 1564 1564 1564 1564 1564 1564 1565 1565 1565 1566 1566 1568 1569 1570 1571 1572 1573 1573 1574 1574 1574 1575 1575 1575 1576 1576 1576 1576
1534 1536 1538 1540 1542 1544 1546 1548 1549 1550 1552 1553 1554 1556 1557 1558 1559 1560 1561 1562 1563 1563 1563 1563 1563 1563 1563 1563 1563 1564 1564 1565 1565 1565 1566 1567 1568 1569 1570 1571 1572 1573 1574 1574 1574 1574 1574 1575 1575 1575 1576 1576
1534 1536 1537 1539 1541 1543 1545 1546 1548 1549 1550 1552 1553 1555 1556 1558 1559 1559 1560 1561 1562 1562 1563 1563 1563 1563 1563 1563 1563 1563 1564 1564 1564 1565 1566 1567 1568 1569 1570 1571 1572 1573 1573 1573 1574 1574 1574 1574 1574 1575 1575 1575
1532 1535 1537 1538 1539 1541 1542 1544 1546 1547 1548 1550 1552 1553 1555 1556 1557 1558 1559 1560 1561 1562 1562 1562 1562 1562 1562 1562 1562 1563 1563 1564 1564 1565 1566 1567 1568 1569 1570 1571 1572 1572 1573 1573 1573 1573 1573 1573 1573 1574 1574 1574
1530 1533 1535 1536 1538 1539 1541 1542 1544 1545 1547 1548 1550 1552 1553 1555 1556 1557 1558 1560 1560 1561 1562 1562 1562 1562 1562 1562 1562 1563 1563 1563 1564 1564 1565 1566 1568 1569 1570 1571 1571 1572 1572 1572 1572 1572 1572 1572 1573 1573 1573 1573
1529 1531 1533 1535 1536 1538 1539 1541 1542 1543 1545 1547 1549 1550 1552 1554 1555 1556 1557 1559 1560 1560 1561 1561 1561 1561 1561 1562 1562 1562 1563 1563 1564 1564 1565 1566 1567 1568 1569 1570 1571 1571 1571 1571 1571 1571 1572 1572 1572 1572 1572 1572
1527 1529 1531 1533 1534 1536 1537 1539 1540 1542 1544 1545 1547 1549 1550 1552 1553 1554 1556 1557 1558 1559 1560 1561 1561 1561 1561 1561 1562 1562 1562 1563 1564 1564 1565 1566 1567 1568 1569 1569 1570 1570 1571 1571 1571 1571 1571 1571 1571 1571 1571 1571
1526 1528 1530 1531 1533 1534 1535 1537 1538 1540 1541 1544 1546 1547 1549 1550 1551 1552 1553 1555 1556 1557 1558 1559 1560 1560 1561 1561 1561 1562 1562 1563 1563 1564 1565 1566 1566 1567 1568 1568 1569 1570 1570 1570 1570 1570 1570 1570 1570 1570 1570 1570
1524 1526 1528 1529 1530 1532 1533 1535 1537 1538 1540 1542 1544 1546 1547 1548 1549 1549 1551 1552 1554 1555 1557 1558 1558 1559 1560 1560 1561 1562 1562 1563 1563 1563 1564 1565 1566 1566 1567 1568 1568 1569 1569 1569 1569 1570 1570 1569 1569 1569 1569 1569
1523 1523 1525 1526 1527 1529 1531 1533 1535 1536 1538 1540 1542 1544 1545 1546 1547 1547 1548 1550 1552 1553 1555 1557 1558 1558 1559 1559 1560 1561 1562 1562 1563 1563 1563 1564 1565 1566 1566 1567 1568 1568 1568 1568 1569 1569 1568 1568 1568 1568 1568 1567
1522 1521 1521 1523 1525 1527 1529 1531 1533 1535 1536 1538 1540 1542 1544 1544 1545 1546 1547 1549 1550 1552 1554 1555 1557 1557 1558 1558 1559 1560 1561 1561 1562 1562 1563 1563 1564 1565 1565 1566 1567 1568 1567 1567 1568 1568 1567 1567 1567 1567 1566 1566
1522 1522 1521 1521 1523 1524 1526 1528 1530 1532 1534 1536 1538 1540 1541 1542 1543 1544 1545 1547 1548 1550 1552 1554 1555 1556 1557 1557 1558 1559 1560 1560 1560 1561 1562 1562 1563 1564 1564 1565 1565 1566 1566 1566 1566 1566 1566 1566 1566 1565 1565 1565
1519 1520 1520 1520 1521 1522 1523 1525 1527 1529 1531 1534 1536 1537 1539 1540 1541 1542 1543 1545 1546 1548 1550 1551 1553 1554 1555 1556 1557 1557 1558 1558 1559 1559 1560 1561 1561 1562 1563 1563 1563 1564 1564 1565 1565 1565 1565 1565 1564 1564 1564 1563
1518 1519 1521 1520 1520 1520 1521 1523 1526 1528 1530 1531 1533 1534 1537 1538 1538 1539 1541 1543 1544 1545 1547 1549 1550 1552 1553 1554 1555 1556 1556 1557 1558 1558 1558 1559 1559 1560 1561 1562 1562 1562 1562 1564 1564 1564 1564 1564 1563 1563 1562 1562
1517 1519 1519 1520 1521 1521 1521 1523 1525 1527 1528 1529 1529 1531 1533 1535 1536 1537 1539 1540 1541 1543 1545 1546 1548 1549 1550 1551 1552 1554 1555 1555 1556 1557 1557 1557 1558 1558 1559 1560 1560 1560 1561 1562 1563 1563 1563 1563 1562 1562 1561 1561
1514 1515 1516 1517 1520 1521 1521 1521 1522 1524 1526 1527 1527 1528 1529 1531 1533 1535 1537 1538 1540 1541 1542 1543 1545 1546 1548 1549 1550 1551 1552 1553 1554 1555 1555 1556 1557 1557 1558 1559 1559 1559 1560 1561 1562 1562 1562 1562 1561 1561 1561 1560
1513 1514 1514 1514 1517 1519 1521 1521 1522 1523 1524 1526 1528 1529 1530 1531 1532 1532 1534 1536 1537 1539 1540 1540 1542 1544 1546 1547 1548 1549 1550 1551 1552 1553 1554 1554 1555 1557 1557 1558 1558 1559 1560 1560 1560 1561 1561 1561 1561 1561 1560 1560
1512 1514 1513 1513 1514 1515 1517 1519 1520 1522 1523 1525 1527 1528 1529 1531 1532 1532 1533 1535 1536 1537 1538 1538 1539 1541 1543 1545 1545 1546 1548 1549 1550 1551 1551 1553 1554 1555 1556 1556 1557 1558 1559 1559 1560 1560 1560 1560 1560 1560 1560 1559
1511 1512 1513 1514 1514 1515 1515 1516 1518 1519 1521 1522 1524 1526 1527 1529 1531 1533 1534 1535 1537 1538 1538 1537 1537 1539 1540 1542 1543 1544 1545 1547 1548 1548 1549 1551 1552 1553 1554 1555 1556 1557 1558 1558 1559 1559 1559 1560 1560 1559 1559 1558
1510 1511 1512 1513 1514 1516 1517 1518 1519 1521 1521 1522 1523 1525 1527 1528 1529 1532 1533 1533 1536 1538 1538 1536 1536 1537 1538 1541 1542 1543 1544 1545 1546 1546 1548 1549 1550 1551 1552 1554 1555 1555 1556 1557 1557 1558 1558 1558 1558 1558 1558 1557
1508 1509 1510 1511 1512 1513 1515 1516 1518 1520 1522 1522 1523 1524 1525 1527 1528 1530 1532 1532 1535 1538 1539 1536 1534 1535 1537 1539 1541 1542 1543 1544 1545 1545 1546 1547 1548 1549 1551 1552 1553 1554 1555 1555 1556 1556 1556 1556 1556 1556 1557 1556
1507 1508 1509 1509 1510 1511 1512 1513 1515 1517 1520 1521 1523 1524 1526 1527 1528 1530 1531 1532 1535 1539 1540 1536 1533 1534 1536 1538 1540 1541 1542 1543 1544 1545 1545 1546 1547 1548 1549 1550 1551 1553 1553 1554 1555 1555 1555 1555 1555 1555 1555 1555